Home   Weather   Village of New Paris   Past weeks
Flag for USA

Past Weather in Village of New Paris, Ohio, USA — Yesterday and Last 2 Weeks

Now
69 °F

Thunderstorms. Overcast.


Feels Like: 69 °F
Forecast: 79 / 67 °F
Wind: 9 mph from South

Location: Dayton / Wright-Patterson Air Force Base

Current Time: Jul 12, 2020 at 4:45:43 pm

Latest Report: Jul 12, 2020 at 3:56 pm


Visibility: 10 mi

Pressure: 29.84 "Hg

Humidity: 75%

Dew Point: 61 °F

Location of Village of New ParisLocation

Past Weather in Village of New Paris — Graph

°F

Village of New Paris Temperature Yesterday

Maximum temperature yesterday: 87 °F (at 3:56 pm)
Minimum temperature yesterday: 69 °F (at 6:56 am)
Average temperature yesterday: 78 °F

High & Low Weather Summary for the Past Weeks

 TemperatureHumidityPressure
High93 °F (Jul 4, 5:56 pm)100% (Jun 28, 1:06 am)30.04 "Hg (Jun 28, 1:06 am)
Low64 °F (Jul 2, 4:56 am)31% (Jul 3, 3:56 pm)29.76 "Hg (Jul 10, 2:56 pm)
Average79 °F69%29.92 "Hg
* Reported Jun 27 3:56 pm — Jul 12 3:32 pm, Village of New Paris. Weather by CustomWeather, © 2020

Note: Actual official high and low records may vary slightly from our data, if they occured in-between our weather recording intervals... More about our weather records

Village of New Paris Weather History for the Previous 24 Hours

Scroll right to see more
 ConditionsComfort  
Time TempWeatherWind HumidityBarometerVisibility
3:32 pm
Sun, Jul 12
75 °FThunderstorms. Partly sunny.24 mph69%29.80 "Hg10 mi
3:17 pm81 °FThunderstorms. Broken clouds.5 mph58%29.80 "Hg10 mi
2:56 pm80 °FThundershowers. Broken clouds.No wind57%29.80 "Hg10 mi
1:56 pm78 °FScattered clouds.3 mph64%29.82 "Hg10 mi
12:56 pm77 °FScattered clouds.5 mph68%29.84 "Hg10 mi
12:44 pm75 °FScattered clouds.5 mph69%29.84 "Hg10 mi
12:16 pm75 °FPartly sunny.No wind74%29.85 "Hg10 mi
12:06 pm73 °FBroken clouds.3 mph78%29.84 "Hg10 mi
11:56 am73 °FPartly sunny.6 mph77%29.84 "Hg10 mi
11:06 am72 °FPartly sunny.6 mph83%29.84 "Hg10 mi
10:56 am71 °FPartly sunny.6 mph87%29.84 "Hg10 mi
10:33 am70 °FPartly sunny.5 mph88%29.84 "Hg10 mi
10:13 am70 °FLow clouds.5 mph94%29.84 "Hg10 mi
8:57 am68 °FStrong thunderstorms. Cloudy.9 mph88%29.84 "Hg4 mi
7:56 am67 °FOvercast.3 mph89%29.81 "Hg10 mi
7:29 am68 °FLight rain. Partly sunny.12 mph83%29.78 "Hg10 mi
6:56 am67 °FSunny.No wind85%29.80 "Hg10 mi
5:56 am66 °FPassing clouds.No wind87%29.81 "Hg10 mi
5:16 am68 °FPassing clouds.3 mph83%29.81 "Hg10 mi
4:56 am68 °FOvercast.3 mph84%29.82 "Hg10 mi
4:26 am68 °FMostly cloudy.3 mph83%29.82 "Hg10 mi
3:56 am67 °FPassing clouds.9 mph87%29.81 "Hg10 mi
2:56 am66 °FClear.3 mph86%29.82 "Hg10 mi
1:56 am67 °FClear.3 mph83%29.83 "Hg10 mi
12:56 am68 °FClear.6 mph78%29.83 "Hg10 mi
11:56 pm
Sat, Jul 11
70 °FPassing clouds.7 mph71%29.84 "Hg10 mi
10:56 pm73 °FPassing clouds.8 mph69%29.86 "Hg10 mi
9:56 pm76 °FPassing clouds.9 mph61%29.85 "Hg10 mi
8:56 pm80 °FPassing clouds.8 mph54%29.82 "Hg10 mi
7:56 pm82 °FPassing clouds.9 mph51%29.82 "Hg10 mi
6:56 pm84 °FScattered clouds.15 mph46%29.82 "Hg10 mi
5:56 pm87 °FBroken clouds.10 mph41%29.84 "Hg10 mi
4:56 pm87 °FScattered clouds.14 mph40%29.85 "Hg10 mi
Weather by CustomWeather, © 2020

See weather overview